DateTimeUTC,F1_A11,F1_S11,BsB_S11,BsG_S11,BsR_S11,BbsB_S11,BbsG_S11,BbsR_S11,BaB_A11,BaG_A11,BaR_A11,Tu_S11,T_S11,Uu_S11,U_S11,P_S11,T1_A11
2021-05-26T05:00:00Z,00000200,20000000,,,,,,,0000.00,0000.10,0000.04,16.7,23.5,06.3,04.1,0672.2,30.8
2021-05-26T05:01:00Z,00000200,20000000,,,,,,,0000.51,0000.47,0000.44,16.7,23.6,06.3,04.1,0672.2,30.8
2021-05-26T05:02:00Z,00000200,20000000,,,,,,,-000.11,-000.22,-000.17,16.7,23.6,06.3,04.1,0672.2,30.8
2021-05-26T05:03:00Z,00000200,60000000,,,,,,,0000.24,-000.04,0000.41,16.8,23.6,06.2,04.1,0672.2,30.8
2021-05-26T05:04:00Z,00000200,40000000,0000.60,0001.01,0000.55,-000.42,0000.27,-000.10,0000.03,0000.42,0000.12,16.9,23.4,06.5,04.4,0673.1,30.8
2021-05-26T05:05:00Z,00000200,00000000,0001.30,0000.75,0000.33,0000.35,0000.08,0000.20,0000.40,0000.22,0000.31,17.0,23.4,06.5,04.4,0673.2,30.8
2021-05-26T05:06:00Z,00000200,00000000,0001.26,0000.68,0000.51,-000.25,0000.09,-000.09,0000.10,0000.27,-000.11,17.0,23.4,06.6,04.5,0673.2,30.8
2021-05-26T05:07:00Z,00000200,00000000,0000.90,0000.69,0000.47,0000.22,0000.02,0000.30,-000.10,0000.04,0000.52,17.0,23.4,06.7,04.5,0673.1,30.8
2021-05-26T05:08:00Z,00000200,00000000,0000.93,0000.94,0000.46,-000.32,0000.14,0000.14,0000.48,0000.07,0000.09,17.0,23.4,06.7,04.5,0673.1,30.8
2021-05-26T05:09:00Z,00000200,00000000,0001.11,0000.51,0000.33,0000.35,0000.10,-000.25,-000.40,0000.37,-000.01,17.0,23.3,06.8,04.6,0673.1,30.8
2021-05-26T05:10:00Z,00000200,00000000,0000.15,0000.80,0000.48,0000.08,0000.17,0000.13,0000.62,0000.05,0000.28,17.0,23.3,06.9,04.7,0673.1,30.8
2021-05-26T05:11:00Z,00000200,00000000,0001.04,0000.55,0000.13,0000.03,-000.04,0000.05,0000.10,0000.32,0000.09,17.0,23.3,06.8,04.6,0673.0,30.8
2021-05-26T05:12:00Z,00000200,00000000,0001.46,0000.61,0000.37,-000.04,0000.11,0000.03,0000.54,-000.14,0000.70,16.9,23.3,06.9,04.7,0673.0,30.8
2021-05-26T05:13:00Z,00000200,00000000,0000.85,0000.62,0000.67,0000.16,0000.19,0000.05,-000.09,0000.23,0000.02,16.9,23.3,06.9,04.6,0673.0,30.8
2021-05-26T05:14:00Z,00000200,00000000,0001.51,0000.71,0000.33,0000.68,0000.22,0000.01,0000.21,0000.42,0000.17,16.9,23.3,07.1,04.8,0673.0,30.8
2021-05-26T05:15:00Z,00000200,00000000,0000.74,0000.80,0000.29,0000.22,0000.00,0000.01,0000.27,0000.35,0000.31,16.9,23.3,07.1,04.8,0673.0,30.8
2021-05-26T05:16:00Z,00000200,00000000,0000.61,0000.43,0000.46,-000.18,0000.02,-000.06,-000.10,-000.02,0000.19,17.0,23.3,07.1,04.8,0673.0,30.8
2021-05-26T05:17:00Z,00000200,00000000,0000.75,0000.92,0000.44,-000.19,0000.14,0000.11,0000.48,0000.24,-000.01,17.0,23.3,07.3,04.9,0673.0,30.8
2021-05-26T05:18:00Z,00000200,00000000,0001.03,0000.65,0000.56,-000.05,0000.18,0000.19,0000.14,0000.33,0000.65,17.0,23.3,07.3,04.9,0673.0,30.8
2021-05-26T05:19:00Z,00000200,00000000,0000.73,0000.57,0000.41,0000.18,0000.03,0000.07,0000.17,0000.53,0000.11,17.0,23.3,07.3,04.9,0672.9,30.8
2021-05-26T05:20:00Z,00000200,00000000,0000.11,0000.54,0000.22,-000.29,-000.03,0000.20,0000.33,0000.00,0000.34,17.0,23.3,07.3,05.0,0672.8,30.8
2021-05-26T05:21:00Z,00000200,00000000,0001.19,0000.53,0000.37,-000.08,0000.12,0000.09,0000.07,0000.15,0000.11,17.0,23.3,07.4,05.0,0672.8,30.8
2021-05-26T05:22:00Z,00000200,00000000,0000.61,0000.65,0000.33,0000.35,0000.11,-000.02,0000.12,0000.12,0000.03,17.0,23.3,07.4,05.0,0672.7,30.8
2021-05-26T05:23:00Z,00000200,00000000,0001.49,0000.21,0000.36,0000.19,0000.06,0000.18,0000.19,0000.09,0000.55,17.0,23.3,07.5,05.1,0672.6,30.8
2021-05-26T05:24:00Z,00000200,00000000,0000.83,0000.59,0000.33,0000.17,0000.21,-000.02,0000.16,0000.49,0000.25,17.0,23.3,07.6,05.1,0672.6,30.8
2021-05-26T05:25:00Z,00000200,00000000,0000.86,0000.63,0000.34,-000.18,0000.02,-000.10,0000.26,0000.10,0000.10,17.0,23.3,07.7,05.2,0672.5,30.8
2021-05-26T05:26:00Z,00000200,00000000,0000.49,0000.40,0000.04,-000.26,0000.10,0000.19,0000.49,0000.24,0000.08,17.0,23.3,07.7,05.2,0672.5,30.8
2021-05-26T05:27:00Z,00000200,00000000,0000.32,0000.66,0000.26,0000.38,0000.11,-000.13,-000.42,-000.12,-000.00,16.9,23.3,07.7,05.2,0672.5,30.8
2021-05-26T05:28:00Z,00000200,00000000,0000.83,0000.52,0000.29,0000.30,0000.26,0000.08,0000.50,0000.35,0000.32,16.9,23.2,07.7,05.2,0672.6,30.8
2021-05-26T05:29:00Z,00000200,00000000,0000.51,0000.79,0000.61,0000.12,-000.01,0000.08,-000.05,0000.35,0000.89,16.9,23.2,07.8,05.3,0672.5,30.8
2021-05-26T05:30:00Z,00000200,00000000,0000.04,0000.81,0000.40,0000.37,0000.16,0000.21,0000.37,0000.22,-000.41,17.0,23.2,07.8,05.3,0672.3,30.8
2021-05-26T05:31:00Z,00000200,00000000,0000.85,0000.69,0000.55,-000.10,0000.22,0000.09,0000.02,-000.08,0000.65,17.0,23.2,07.9,05.4,0672.5,30.8
2021-05-26T05:32:00Z,00000200,00000000,0001.13,0000.61,0000.34,-000.45,0000.13,0000.30,0000.12,-000.13,-000.65,17.0,23.3,07.8,05.3,0672.5,30.8
2021-05-26T05:33:00Z,00000200,00000000,0000.48,0000.63,0000.55,0000.05,-000.06,0000.26,0000.04,0000.02,0000.69,17.0,23.3,07.7,05.2,0672.5,30.8
2021-05-26T05:34:00Z,00000200,00000000,0000.43,0000.48,0000.09,-000.16,-000.13,-000.22,-000.16,0000.50,-000.55,17.0,23.3,07.6,05.2,0672.6,30.8
2021-05-26T05:35:00Z,00000200,00000000,0000.45,0000.73,0000.33,0000.48,0000.30,0000.17,0000.02,-000.26,0000.30,17.0,23.3,07.6,05.2,0672.6,30.8
2021-05-26T05:36:00Z,00000200,00000000,0000.78,0000.55,0000.49,-000.04,0000.20,-000.04,0000.14,-000.11,-000.32,17.0,23.3,07.5,05.1,0672.7,30.8
2021-05-26T05:37:00Z,00000200,00000000,0000.54,0000.74,0000.54,0000.29,-000.06,0000.18,-000.26,-000.03,0000.27,17.0,23.3,07.4,05.0,0672.5,30.8
2021-05-26T05:38:00Z,00000200,00000000,0000.77,0000.52,0000.45,-000.11,0000.31,-000.02,-000.03,-000.10,-000.10,17.0,23.3,07.5,05.1,0672.5,30.8
2021-05-26T05:39:00Z,00000200,00000000,0000.67,0000.36,0000.33,0000.49,0000.05,0000.02,0000.21,-000.28,-000.12,17.0,23.3,07.4,05.0,0672.3,30.8
2021-05-26T05:40:00Z,00000200,00000000,0000.72,0000.52,0000.49,0000.09,-000.00,-000.01,-000.48,0000.40,0000.28,17.0,23.2,07.4,05.0,0672.3,30.8
2021-05-26T05:41:00Z,00000200,00000000,0000.45,0000.78,0000.19,0000.14,0000.11,0000.33,0000.45,-000.27,-000.02,17.0,23.2,07.4,05.0,0672.3,30.8
2021-05-26T05:42:00Z,00000200,00000000,-000.14,0000.72,0000.39,-000.06,0000.20,-000.08,0000.08,0000.20,0000.31,17.0,23.2,07.4,05.0,0672.2,30.8
2021-05-26T05:43:00Z,00000200,00000000,0000.98,0000.60,0000.42,-000.28,0000.02,0000.20,0000.12,-000.03,-000.06,16.9,23.2,07.3,05.0,0672.1,30.8
2021-05-26T05:44:00Z,00000200,00000000,0001.11,0000.56,0000.25,0000.12,0000.08,-000.37,-000.35,0000.46,0000.21,17.0,23.2,07.2,04.9,0672.2,30.8
2021-05-26T05:45:00Z,00000200,00000000,0000.27,0000.16,0000.14,-000.24,0000.08,-000.20,0000.14,-000.17,-000.10,17.0,23.2,07.2,04.9,0672.3,30.8
2021-05-26T05:46:00Z,00000200,00000000,0000.01,0000.62,0000.46,0000.14,0000.02,0000.04,0000.19,0000.19,0000.31,17.0,23.2,07.3,04.9,0672.2,30.8
2021-05-26T05:47:00Z,00000200,00000000,0001.02,0000.53,0000.43,0000.39,0000.05,0000.09,0000.02,0000.03,0000.09,17.0,23.2,07.2,04.9,0672.3,30.8
2021-05-26T05:48:00Z,00000200,00000000,0000.54,0000.76,0000.32,0000.39,0000.28,0000.00,0000.29,0000.34,0000.28,17.0,23.3,07.2,04.9,0672.2,30.8
2021-05-26T05:49:00Z,00000200,00000000,0000.51,0000.46,0000.58,-000.44,0000.10,0000.24,0000.05,-000.14,-000.13,17.0,23.2,07.2,04.9,0672.3,30.8
2021-05-26T05:50:00Z,00000200,00000000,0000.84,0000.40,0000.25,-000.08,0000.16,0000.06,-000.31,-000.04,-000.08,17.0,23.2,07.1,04.9,0672.3,30.8
2021-05-26T05:51:00Z,00000200,00000000,0000.68,0000.41,0000.16,0000.01,0000.25,0000.31,0000.10,0000.08,0000.24,17.0,23.2,07.2,04.9,0672.4,30.8
2021-05-26T05:52:00Z,00000200,00000000,0000.71,0000.27,0000.06,0000.46,0000.12,-000.15,0000.34,0000.37,-000.05,17.0,23.2,07.2,04.9,0672.6,30.8
2021-05-26T05:53:00Z,00000200,00000000,0000.37,0000.73,0000.18,-000.25,0000.16,-000.10,-000.09,-000.14,-000.02,17.0,23.2,07.1,04.8,0672.6,30.8
2021-05-26T05:54:00Z,00000200,00000000,0000.79,0000.30,0000.31,0000.13,0000.19,0000.20,-000.18,-000.26,0000.15,17.0,23.2,07.0,04.8,0672.4,30.8
2021-05-26T05:55:00Z,00000200,00000000,0000.66,0000.55,0000.34,-000.04,0000.06,0000.17,0000.20,0000.20,0000.19,17.0,23.2,07.1,04.8,0672.4,30.8
2021-05-26T05:56:00Z,00000200,00000000,0000.57,0000.57,0000.07,0000.09,0000.23,-000.16,-000.22,-000.08,0000.02,17.0,23.2,07.1,04.8,0672.2,30.8
2021-05-26T05:57:00Z,00000200,40000000,,,,,,,-000.08,0000.03,0000.01,17.0,23.2,07.0,04.8,0672.6,30.8
2021-05-26T05:58:00Z,00000200,60000000,,,,,,,0000.22,-000.49,-000.35,16.7,23.3,07.0,04.6,0671.4,30.8
2021-05-26T05:59:00Z,00000200,20000000,,,,,,,-000.33,0000.31,0000.06,16.7,23.4,07.0,04.6,0671.3,30.8
